When you browse on this site, cookies collect data to enhance your experience and personalize the content and advertising you see.
Visit our Privacy Policy to learn more. By continuing to use the site, you agree to this use of cookies and data.
  • Em Portugal
  • Lista de países
  • Para 7 dias
  • Temperatura da água
  • Mapas de satélite
  • Mapa do tempo
  • Widgets de tempo
  • user-avatar
    Iniciar Sessão

    Previsão horária em Kobialki

    Hoje, 20 Junho, Quinta-feira

    Tempo Temperatura Precipitação Vento Pressão Humidade
    00:00 +19°C° 0.2 mm 2 m/s 744 mmHg 92%
    01:00 +18°C° 0.2 mm 2 m/s 744 mmHg 93%
    02:00 +18°C° 0 mm 2 m/s 744 mmHg 93%
    03:00 +18°C° 0 mm 2 m/s 744 mmHg 93%
    04:00 +18°C° 0 mm 2 m/s 744 mmHg 93%
    05:00 +20°C° 0 mm 2 m/s 744 mmHg 91%
    06:00 +21°C° 0 mm 2 m/s 744 mmHg 89%
    07:00 +23°C° 0 mm 2 m/s 744 mmHg 87%
    08:00 +24°C° 0.3 mm 3 m/s 744 mmHg 80%
    09:00 +26°C° 0.3 mm 3 m/s 744 mmHg 72%
    10:00 +28°C° 0.3 mm 3 m/s 744 mmHg 65%
    11:00 +28°C° 0 mm 3 m/s 744 mmHg 62%
    12:00 +29°C° 0 mm 3 m/s 744 mmHg 58%
    13:00 +29°C° 0 mm 3 m/s 744 mmHg 55%
    14:00 +29°C° 0 mm 2 m/s 744 mmHg 55%
    15:00 +29°C° 0 mm 2 m/s 743 mmHg 56%
    16:00 +30°C° 0 mm 2 m/s 743 mmHg 56%
    17:00 +28°C° 0 mm 1 m/s 743 mmHg 61%
    18:00 +27°C° 0 mm 1 m/s 743 mmHg 66%
    19:00 +26°C° 0 mm 1 m/s 743 mmHg 71%
    20:00 +25°C° 0.1 mm 1 m/s 744 mmHg 74%
    21:00 +23°C° 0.1 mm 2 m/s 744 mmHg 77%
    22:00 +21°C° 0.1 mm 2 m/s 744 mmHg 81%
    23:00 +20°C° 0.1 mm 2 m/s 744 mmHg 84%

    Amanhã, 21 Junho, Sexta-feira

    Tempo Temperatura Precipitação Vento Pressão Humidade
    00:00 +20°C° 0.1 mm 2 m/s 744 mmHg 87%
    01:00 +19°C° 0.1 mm 2 m/s 744 mmHg 90%
    02:00 +19°C° 0.3 mm 2 m/s 744 mmHg 91%
    03:00 +20°C° 0.3 mm 1 m/s 745 mmHg 92%
    04:00 +20°C° 0.3 mm 1 m/s 745 mmHg 93%
    05:00 +20°C° 0 mm 2 m/s 745 mmHg 91%
    06:00 +21°C° 0 mm 2 m/s 745 mmHg 89%
    07:00 +22°C° 0 mm 3 m/s 746 mmHg 87%
    08:00 +24°C° 0.7 mm 3 m/s 746 mmHg 82%
    09:00 +25°C° 0.7 mm 3 m/s 746 mmHg 77%
    10:00 +26°C° 0.7 mm 4 m/s 746 mmHg 72%
    11:00 +27°C° 1.6 mm 4 m/s 746 mmHg 71%
    12:00 +27°C° 1.6 mm 4 m/s 746 mmHg 71%
    13:00 +27°C° 1.6 mm 4 m/s 746 mmHg 70%
    14:00 +26°C° 1.3 mm 3 m/s 746 mmHg 72%
    15:00 +26°C° 1.3 mm 3 m/s 747 mmHg 74%
    16:00 +26°C° 1.3 mm 3 m/s 747 mmHg 76%
    17:00 +25°C° 0.5 mm 3 m/s 747 mmHg 79%
    18:00 +22°C° 0.5 mm 3 m/s 747 mmHg 83%
    19:00 +21°C° 0.5 mm 3 m/s 747 mmHg 87%
    20:00 +20°C° 0 mm 3 m/s 748 mmHg 88%
    21:00 +19°C° 0 mm 3 m/s 748 mmHg 90%
    22:00 +17°C° 0 mm 3 m/s 748 mmHg 91%
    23:00 +17°C° 0 mm 3 m/s 749 mmHg 91%

    Depois de amanhã, 22 Junho, Sábado

    Tempo Temperatura Precipitação Vento Pressão Humidade
    00:00 +16°C° 0 mm 3 m/s 749 mmHg 90%
    01:00 +16°C° 0 mm 3 m/s 749 mmHg 89%
    02:00 +14°C° 0 mm 3 m/s 750 mmHg 91%
    03:00 +14°C° 0 mm 3 m/s 750 mmHg 92%
    04:00 +13°C° 0 mm 3 m/s 750 mmHg 94%
    05:00 +15°C° 0 mm 4 m/s 751 mmHg 88%
    06:00 +17°C° 0 mm 4 m/s 751 mmHg 82%
    07:00 +18°C° 0 mm 4 m/s 752 mmHg 77%
    08:00 +19°C° 0 mm 4 m/s 752 mmHg 72%
    09:00 +20°C° 0 mm 4 m/s 752 mmHg 68%
    10:00 +21°C° 0 mm 4 m/s 752 mmHg 63%
    11:00 +22°C° 0 mm 4 m/s 752 mmHg 62%
    12:00 +22°C° 0 mm 4 m/s 752 mmHg 61%
    13:00 +23°C° 0 mm 5 m/s 752 mmHg 60%
    14:00 +22°C° 0 mm 5 m/s 752 mmHg 60%
    15:00 +22°C° 0 mm 5 m/s 752 mmHg 61%
    16:00 +21°C° 0 mm 5 m/s 752 mmHg 62%
    17:00 +20°C° 0 mm 5 m/s 752 mmHg 67%
    18:00 +18°C° 0 mm 4 m/s 752 mmHg 72%
    19:00 +17°C° 0 mm 4 m/s 752 mmHg 77%
    20:00 +14°C° 0 mm 4 m/s 753 mmHg 81%
    21:00 +13°C° 0 mm 4 m/s 753 mmHg 85%
    22:00 +11°C° 0 mm 3 m/s 753 mmHg 90%
    23:00 +10°C° 0 mm 3 m/s 753 mmHg 90%

    23 Junho, Domingo

    Tempo Temperatura Precipitação Vento Pressão Humidade
    00:00 +10°C° 0 mm 3 m/s 753 mmHg 90%
    01:00 +9°C° 0 mm 3 m/s 753 mmHg 89%
    02:00 +8°C° 0 mm 4 m/s 753 mmHg 89%
    03:00 +8°C° 0 mm 4 m/s 753 mmHg 88%
    04:00 +8°C° 0 mm 4 m/s 753 mmHg 87%
    05:00 +11°C° 0 mm 4 m/s 753 mmHg 83%
    06:00 +12°C° 0 mm 4 m/s 753 mmHg 79%
    07:00 +14°C° 0 mm 4 m/s 753 mmHg 75%
    08:00 +17°C° 0 mm 4 m/s 753 mmHg 70%
    09:00 +18°C° 0 mm 4 m/s 753 mmHg 66%
    10:00 +20°C° 0 mm 4 m/s 753 mmHg 61%
    11:00 +21°C° 0 mm 4 m/s 753 mmHg 60%
    12:00 +22°C° 0 mm 4 m/s 753 mmHg 59%
    13:00 +22°C° 0 mm 4 m/s 753 mmHg 58%
    14:00 +22°C° 0 mm 4 m/s 753 mmHg 60%
    15:00 +22°C° 0 mm 4 m/s 753 mmHg 62%
    16:00 +22°C° 0 mm 5 m/s 753 mmHg 63%
    17:00 +21°C° 0 mm 4 m/s 753 mmHg 68%
    18:00 +19°C° 0 mm 4 m/s 753 mmHg 72%
    19:00 +18°C° 0 mm 4 m/s 753 mmHg 76%
    20:00 +17°C° 0 mm 4 m/s 754 mmHg 78%
    21:00 +15°C° 0 mm 4 m/s 754 mmHg 80%
    22:00 +14°C° 0 mm 4 m/s 754 mmHg 82%
    23:00 +13°C° 0 mm 4 m/s 754 mmHg 83%

    24 Junho, Segunda-feira

    Tempo Temperatura Precipitação Vento Pressão Humidade
    00:00 +13°C° 0 mm 4 m/s 754 mmHg 84%
    01:00 +13°C° 0 mm 4 m/s 754 mmHg 85%
    02:00 +12°C° 0 mm 3 m/s 754 mmHg 85%
    03:00 +12°C° 0 mm 3 m/s 754 mmHg 86%
    04:00 +12°C° 0 mm 3 m/s 754 mmHg 87%
    05:00 +13°C° 0 mm 3 m/s 754 mmHg 83%
    06:00 +15°C° 0 mm 4 m/s 755 mmHg 79%
    07:00 +17°C° 0 mm 4 m/s 755 mmHg 76%
    08:00 +19°C° 0 mm 4 m/s 755 mmHg 70%
    09:00 +21°C° 0 mm 4 m/s 755 mmHg 64%
    10:00 +23°C° 0 mm 4 m/s 755 mmHg 58%
    11:00 +24°C° 0 mm 3 m/s 755 mmHg 56%
    12:00 +25°C° 0 mm 3 m/s 755 mmHg 55%
    13:00 +26°C° 0 mm 3 m/s 755 mmHg 53%
    14:00 +26°C° 0 mm 3 m/s 755 mmHg 54%
    15:00 +26°C° 0 mm 3 m/s 755 mmHg 56%
    16:00 +26°C° 0 mm 3 m/s 755 mmHg 57%
    17:00 +25°C° 0 mm 3 m/s 755 mmHg 64%
    18:00 +22°C° 0 mm 3 m/s 755 mmHg 70%
    19:00 +21°C° 0 mm 3 m/s 755 mmHg 77%
    20:00 +19°C° 0 mm 3 m/s 755 mmHg 81%
    21:00 +18°C° 0 mm 3 m/s 755 mmHg 85%
    22:00 +16°C° 0 mm 3 m/s 756 mmHg 89%
    23:00 +16°C° 0 mm 3 m/s 756 mmHg 91%

    25 Junho, Terça-feira

    Tempo Temperatura Precipitação Vento Pressão Humidade
    00:00 +14°C° 0 mm 3 m/s 756 mmHg 92%
    01:00 +14°C° 0 mm 3 m/s 756 mmHg 93%
    02:00 +14°C° 0 mm 3 m/s 756 mmHg 93%
    03:00 +14°C° 0 mm 3 m/s 756 mmHg 93%
    04:00 +13°C° 0 mm 3 m/s 755 mmHg 93%
    05:00 +16°C° 0 mm 3 m/s 756 mmHg 88%
    06:00 +18°C° 0 mm 2 m/s 756 mmHg 83%
    07:00 +20°C° 0 mm 2 m/s 756 mmHg 79%
    08:00 +21°C° 0 mm 2 m/s 756 mmHg 74%
    09:00 +24°C° 0 mm 2 m/s 756 mmHg 69%
    10:00 +25°C° 0 mm 2 m/s 756 mmHg 64%
    11:00 +26°C° 0 mm 2 m/s 756 mmHg 62%
    12:00 +26°C° 0 mm 2 m/s 756 mmHg 60%
    13:00 +27°C° 0 mm 1 m/s 756 mmHg 57%
    14:00 +27°C° 0 mm 1 m/s 755 mmHg 57%
    15:00 +27°C° 0 mm 1 m/s 755 mmHg 56%
    16:00 +27°C° 0 mm 1 m/s 755 mmHg 55%
    17:00 +26°C° 0 mm 1 m/s 755 mmHg 61%
    18:00 +25°C° 0 mm 1 m/s 754 mmHg 67%
    19:00 +23°C° 0 mm 1 m/s 754 mmHg 73%
    20:00 +21°C° 0 mm 2 m/s 755 mmHg 78%
    21:00 +19°C° 0 mm 2 m/s 755 mmHg 82%
    22:00 +18°C° 0 mm 2 m/s 755 mmHg 87%
    23:00 +17°C° 0 mm 2 m/s 755 mmHg 88%
    Mostrar mais